| time (UTC) | temp C | wind direction | speed KPH | gust KPH | rain 1hr cm | rain 24hr cm | rain mn cm | humidity % | barometer mb |
| 20260506070622 | 13 | 105 | 3.2 | 3.2 | 0.00 | 0.00 | 0.00 | 86 | 1012.0 |
| 20260506070119 | 13 | 118 | 3.2 | 4.8 | 0.00 | 0.00 | 0.00 | 85 | 1012.4 |
| 20260506062057 | 13 | 113 | 1.6 | 3.2 | 0.00 | 0.00 | 0.00 | 85 | 1011.4 |
| 20260506061552 | 13 | 136 | 0.0 | 0.0 | 0.00 | 0.00 | 0.00 | 85 | 1011.7 |
| 20260506061050 | 13 | 133 | 0.0 | 0.0 | 0.00 | 0.00 | 0.00 | 84 | 1011.7 |
| 20260506060549 | 13 | 132 | 0.0 | 0.0 | 0.00 | 0.00 | 0.00 | 84 | 1011.7 |
| 20260506051017 | 15 | 132 | 1.6 | 3.2 | 0.00 | 0.00 | 0.00 | 81 | 1012.0 |
| 20260506050515 | 15 | 129 | 0.0 | 0.0 | 0.00 | 0.00 | 0.00 | 81 | 1012.4 |
| 20260506045005 | 15 | 131 | 0.0 | 0.0 | 0.00 | 0.00 | 0.00 | 80 | 1012.0 |
| 20260506044503 | 15 | 134 | 0.0 | 0.0 | 0.00 | 0.00 | 0.00 | 80 | 1012.0 |
| 20260506043959 | 15 | 110 | 0.0 | 0.0 | 0.00 | 0.00 | 0.00 | 79 | 1012.0 |
| 20260506043456 | 15 | 125 | 1.6 | 1.6 | 0.00 | 0.00 | 0.00 | 79 | 1012.4 |
| 20260506042954 | 16 | 350 | 1.6 | 8.0 | 0.00 | 0.00 | 0.00 | 78 | 1012.4 |
| 20260506042449 | 16 | 116 | 1.6 | 3.2 | 0.00 | 0.00 | 0.00 | 78 | 1012.0 |
| 20260506041946 | 16 | 137 | 0.0 | 0.0 | 0.00 | 0.00 | 0.00 | 78 | 1012.0 |
| 20260506041444 | 16 | 131 | 4.8 | 8.0 | 0.00 | 0.00 | 0.00 | 77 | 1012.0 |
| 20260506040941 | 16 | 130 | 0.0 | 1.6 | 0.00 | 0.00 | 0.00 | 78 | 1011.7 |
| 20260506040438 | 16 | 133 | 0.0 | 0.0 | 0.00 | 0.00 | 0.00 | 77 | 1012.0 |
| 20260506035934 | 17 | 117 | 0.0 | 0.0 | 0.00 | 0.00 | 0.00 | 77 | 1011.7 |
| 20260506035432 | 17 | 134 | 1.6 | 1.6 | 0.00 | 0.00 | 0.00 | 76 | 1011.7 |
| 20260506034928 | 17 | 130 | 1.6 | 3.2 | 0.00 | 0.00 | 0.00 | 76 | 1011.7 |
| 20260506034426 | 17 | 123 | 1.6 | 1.6 | 0.00 | 0.00 | 0.00 | 77 | 1011.7 |
| 20260506033923 | 17 | 138 | 0.0 | 0.0 | 0.00 | 0.00 | 0.00 | 76 | 1011.4 |
| 20260506033420 | 18 | 102 | 1.6 | 3.2 | 0.00 | 0.00 | 0.00 | 75 | 1011.4 |
| 20260506032917 | 18 | 116 | 1.6 | 3.2 | 0.00 | 0.00 | 0.00 | 75 | 1011.4 |
| 20260506032414 | 18 | 146 | 4.8 | 4.8 | 0.00 | 0.00 | 0.00 | 75 | 1011.4 |
| 20260506031910 | 18 | 15 | 4.8 | 8.0 | 0.00 | 0.00 | 0.00 | 75 | 1011.0 |
| 20260506031408 | 18 | 113 | 0.0 | 1.6 | 0.00 | 0.00 | 0.00 | 75 | 1011.0 |
| 20260506030905 | 18 | 141 | 0.0 | 0.0 | 0.00 | 0.00 | 0.00 | 74 | 1011.4 |
| 20260506030403 | 19 | 125 | 3.2 | 4.8 | 0.00 | 0.00 | 0.00 | 73 | 1011.0 |
| 20260506025900 | 19 | 121 | 0.0 | 1.6 | 0.00 | 0.00 | 0.00 | 73 | 1010.6 |
| 20260506025356 | 19 | 138 | 1.6 | 1.6 | 0.00 | 0.00 | 0.00 | 74 | 1010.6 |
| 20260506024854 | 19 | 80 | 1.6 | 3.2 | 0.00 | 0.00 | 0.00 | 74 | 1010.2 |
| 20260506024351 | 20 | 138 | 0.0 | 0.0 | 0.00 | 0.00 | 0.00 | 74 | 1010.2 |
| 20260506023846 | 20 | 133 | 0.0 | 0.0 | 0.00 | 0.00 | 0.00 | 74 | 1009.9 |
| 20260506023343 | 20 | 109 | 1.6 | 1.6 | 0.00 | 0.00 | 0.00 | 73 | 1010.2 |
| 20260506022840 | 20 | 129 | 1.6 | 1.6 | 0.00 | 0.00 | 0.00 | 72 | 1009.9 |
| 20260506022338 | 20 | 150 | 0.0 | 0.0 | 0.00 | 0.00 | 0.00 | 72 | 1009.6 |
| 20260506021836 | 20 | 131 | 0.0 | 0.0 | 0.00 | 0.00 | 0.00 | 70 | 1009.6 |
| 20260506021332 | 20 | 126 | 1.6 | 3.2 | 0.00 | 0.00 | 0.00 | 69 | 1009.6 |
| 20260506020829 | 20 | 130 | 0.0 | 0.0 | 0.00 | 0.00 | 0.00 | 68 | 1009.2 |
| 20260506020327 | 20 | 128 | 1.6 | 3.2 | 0.00 | 0.00 | 0.00 | 68 | 1008.9 |
| 20260506015824 | 20 | 115 | 1.6 | 1.6 | 0.00 | 0.00 | 0.00 | 67 | 1009.2 |
| 20260506015322 | 21 | 130 | 0.0 | 1.6 | 0.00 | 0.00 | 0.00 | 67 | 1008.9 |
| 20260506014818 | 21 | 50 | 1.6 | 3.2 | 0.00 | 0.00 | 0.00 | 66 | 1008.6 |
| 20260506014315 | 21 | 121 | 1.6 | 3.2 | 0.00 | 0.00 | 0.00 | 66 | 1008.6 |
| 20260506013812 | 21 | 126 | 1.6 | 3.2 | 0.00 | 0.00 | 0.00 | 67 | 1008.6 |
| 20260506013309 | 21 | 130 | 0.0 | 0.0 | 0.00 | 0.00 | 0.00 | 66 | 1008.2 |
| 20260506012806 | 21 | 55 | 4.8 | 8.0 | 0.00 | 0.00 | 0.00 | 66 | 1008.9 |
| 20260506012307 | 21 | 119 | 0.0 | 1.6 | 0.00 | 0.00 | 0.00 | 66 | 1008.2 |
| 20260506011800 | 21 | 127 | 1.6 | 3.2 | 0.00 | 0.00 | 0.00 | 66 | 1008.2 |
| 20260506011256 | 22 | 92 | 4.8 | 4.8 | 0.00 | 0.00 | 0.00 | 65 | 1007.9 |
| 20260506010754 | 22 | 123 | 1.6 | 1.6 | 0.00 | 0.00 | 0.00 | 65 | 1007.9 |
| 20260506010252 | 22 | 125 | 1.6 | 3.2 | 0.00 | 0.00 | 0.00 | 64 | 1007.9 |
| 20260506005749 | 22 | 130 | 1.6 | 3.2 | 0.00 | 0.00 | 0.00 | 63 | 1007.9 |
| 20260506005245 | 22 | 111 | 1.6 | 3.2 | 0.00 | 0.00 | 0.00 | 64 | 1007.9 |
| 20260506004741 | 22 | 126 | 1.6 | 1.6 | 0.00 | 0.00 | 0.00 | 63 | 1007.9 |
| 20260506004239 | 23 | 131 | 0.0 | 0.0 | 0.00 | 0.00 | 0.00 | 63 | 1007.1 |
| 20260506003735 | 23 | 137 | 0.0 | 0.0 | 0.00 | 0.00 | 0.00 | 63 | 1007.5 |
| 20260506003231 | 23 | 135 | 3.2 | 3.2 | 0.00 | 0.00 | 0.00 | 62 | 1007.5 |
| 20260506002727 | 23 | 124 | 1.6 | 1.6 | 0.00 | 0.00 | 0.00 | 62 | 1007.1 |
| 20260506002224 | 23 | 125 | 4.8 | 4.8 | 0.00 | 0.00 | 0.00 | 62 | 1007.1 |
| 20260506001719 | 24 | 55 | 8.0 | 9.7 | 0.00 | 0.00 | 0.00 | 61 | 1007.1 |
| 20260506001217 | 25 | 79 | 8.0 | 11.3 | 0.00 | 0.00 | 0.00 | 62 | 1007.9 |
| 20260506000714 | 25 | 86 | 3.2 | 4.8 | 0.00 | 0.00 | 0.00 | 61 | 1007.1 |
| 20260506000212 | 25 | 132 | 1.6 | 1.6 | 0.00 | 0.00 | 0.00 | 61 | 1006.8 |
| 20260505235709 | 25 | 298 | 3.2 | 8.0 | 0.00 | 0.00 | 0.00 | 62 | 1006.8 |
| 20260505235207 | 25 | 124 | 3.2 | 4.8 | 0.00 | 0.00 | 0.00 | 61 | 1006.8 |
| 20260505234703 | 26 | 348 | 9.7 | 11.3 | 0.00 | 0.00 | 0.00 | 60 | 1006.8 |
| 20260505234200 | 26 | 7 | 6.4 | 9.7 | 0.00 | 0.00 | 0.00 | 59 | 1007.1 |
| 20260505233657 | 26 | 103 | 4.8 | 4.8 | 0.00 | 0.00 | 0.00 | 58 | 1007.1 |
| 20260505233155 | 26 | 119 | 11.3 | 14.5 | 0.00 | 0.00 | 0.00 | 58 | 1007.1 |
| 20260505232652 | 26 | 130 | 4.8 | 8.0 | 0.00 | 0.00 | 0.00 | 58 | 1007.1 |
| 20260505232150 | 27 | 97 | 8.0 | 12.9 | 0.00 | 0.00 | 0.00 | 57 | 1006.8 |
| 20260505231646 | 27 | 121 | 4.8 | 8.0 | 0.00 | 0.00 | 0.00 | 55 | 1006.8 |
| 20260505231145 | 28 | 119 | 3.2 | 3.2 | 0.00 | 0.00 | 0.00 | 56 | 1006.8 |
| 20260505230642 | 28 | 14 | 4.8 | 9.7 | 0.00 | 0.00 | 0.00 | 56 | 1006.8 |
| 20260505230138 | 28 | 106 | 1.6 | 3.2 | 0.00 | 0.00 | 0.00 | 56 | 1006.1 |
| 20260505225635 | 29 | 35 | 8.0 | 12.9 | 0.00 | 0.00 | 0.00 | 54 | 1006.1 |
| 20260505225131 | 30 | 54 | 4.8 | 9.7 | 0.00 | 0.00 | 0.00 | 53 | 1006.1 |
| 20260505224628 | 31 | 350 | 8.0 | 11.3 | 0.00 | 0.00 | 0.00 | 52 | 1005.4 |
| 20260505224126 | 31 | 110 | 8.0 | 12.9 | 0.00 | 0.00 | 0.00 | 50 | 1005.4 |
| 20260505223623 | 33 | 124 | 8.0 | 11.3 | 0.00 | 0.00 | 0.00 | 44 | 1005.4 |
| 20260505223119 | 33 | 40 | 3.2 | 4.8 | 0.00 | 0.00 | 0.00 | 41 | 1005.7 |
| 20260505222615 | 33 | 137 | 0.0 | 0.0 | 0.00 | 0.00 | 0.00 | 43 | 1005.4 |
| 20260505222111 | 33 | 130 | 3.2 | 3.2 | 0.00 | 0.00 | 0.00 | 42 | 1005.4 |
| 20260505221609 | 33 | 107 | 4.8 | 4.8 | 0.00 | 0.00 | 0.00 | 40 | 1005.4 |
| 20260505221105 | 33 | 42 | 4.8 | 4.8 | 0.00 | 0.00 | 0.00 | 41 | 1005.4 |
| 20260505220603 | 34 | 141 | 3.2 | 4.8 | 0.00 | 0.00 | 0.00 | 40 | 1005.4 |
| 20260505220100 | 33 | 138 | 1.6 | 1.6 | 0.00 | 0.00 | 0.00 | 41 | 1005.7 |
| 20260505215558 | 33 | 150 | 3.2 | 3.2 | 0.00 | 0.00 | 0.00 | 42 | 1005.4 |
| 20260505215056 | 33 | 133 | 1.6 | 1.6 | 0.00 | 0.00 | 0.00 | 42 | 1005.4 |
| 20260505214554 | 32 | 137 | 3.2 | 4.8 | 0.00 | 0.00 | 0.00 | 44 | 1005.7 |
| 20260505214050 | 32 | 86 | 1.6 | 1.6 | 0.00 | 0.00 | 0.00 | 44 | 1005.4 |
| 20260505213548 | 33 | 20 | 3.2 | 4.8 | 0.00 | 0.00 | 0.00 | 43 | 1005.4 |
| 20260505213044 | 32 | 345 | 6.4 | 9.7 | 0.00 | 0.00 | 0.00 | 42 | 1005.4 |
| 20260505212540 | 33 | 31 | 8.0 | 11.3 | 0.00 | 0.00 | 0.00 | 42 | 1005.4 |
| 20260505212038 | 33 | 326 | 4.8 | 4.8 | 0.00 | 0.00 | 0.00 | 41 | 1005.1 |
| 20260505211535 | 33 | 39 | 4.8 | 8.0 | 0.00 | 0.00 | 0.00 | 43 | 1005.1 |
| 20260505211031 | 33 | 134 | 1.6 | 3.2 | 0.00 | 0.00 | 0.00 | 43 | 1005.7 |
| 20260505210528 | 33 | 176 | 3.2 | 3.2 | 0.00 | 0.00 | 0.00 | 40 | 1005.7 |
| 20260505210025 | 33 | 263 | 4.8 | 9.7 | 0.00 | 0.00 | 0.00 | 38 | 1005.7 |
| 20260505205524 | 33 | 136 | 0.0 | 1.6 | 0.00 | 0.00 | 0.00 | 39 | 1005.4 |
| 20260505205020 | 33 | 161 | 3.2 | 4.8 | 0.00 | 0.00 | 0.00 | 41 | 1005.7 |
| 20260505204518 | 33 | 272 | 6.4 | 12.9 | 0.00 | 0.00 | 0.00 | 39 | 1005.7 |
| 20260505204015 | 33 | 304 | 8.0 | 9.7 | 0.00 | 0.00 | 0.00 | 38 | 1005.7 |
| 20260505203512 | 34 | 135 | 0.0 | 0.0 | 0.00 | 0.00 | 0.00 | 39 | 1005.7 |
| 20260505203009 | 35 | 138 | 0.0 | 1.6 | 0.00 | 0.00 | 0.00 | 40 | 1005.7 |
| 20260505202505 | 33 | 187 | 4.8 | 4.8 | 0.00 | 0.00 | 0.00 | 38 | 1006.1 |
| 20260505202001 | 33 | 260 | 6.4 | 8.0 | 0.00 | 0.00 | 0.00 | 40 | 1006.1 |
| 20260505201458 | 33 | 298 | 11.3 | 14.5 | 0.00 | 0.00 | 0.00 | 41 | 1006.1 |
| 20260505200955 | 32 | 297 | 6.4 | 8.0 | 0.00 | 0.00 | 0.00 | 39 | 1006.1 |
| 20260505200453 | 33 | 266 | 11.3 | 14.5 | 0.00 | 0.00 | 0.00 | 41 | 1006.4 |
| 20260505195948 | 33 | 291 | 11.3 | 12.9 | 0.00 | 0.00 | 0.00 | 44 | 1006.4 |
| 20260505195446 | 32 | 143 | 0.0 | 1.6 | 0.00 | 0.00 | 0.00 | 44 | 1006.1 |
| 20260505194943 | 32 | 243 | 8.0 | 9.7 | 0.00 | 0.00 | 0.00 | 42 | 1006.1 |
| 20260505194441 | 33 | 281 | 8.0 | 11.3 | 0.00 | 0.00 | 0.00 | 44 | 1006.4 |
| 20260505193940 | 32 | 156 | 4.8 | 8.0 | 0.00 | 0.00 | 0.00 | 46 | 1006.8 |
| 20260505193438 | 32 | 264 | 8.0 | 11.3 | 0.00 | 0.00 | 0.00 | 47 | 1006.8 |
| 20260505192936 | 32 | 143 | 1.6 | 3.2 | 0.00 | 0.00 | 0.00 | 46 | 1006.8 |
| 20260505192434 | 32 | 163 | 6.4 | 8.0 | 0.00 | 0.00 | 0.00 | 47 | 1006.4 |
| 20260505191931 | 32 | 275 | 6.4 | 8.0 | 0.00 | 0.00 | 0.00 | 47 | 1006.8 |
| 20260505191430 | 32 | 316 | 6.4 | 9.7 | 0.00 | 0.00 | 0.00 | 46 | 1006.8 |
| 20260505190926 | 32 | 134 | 4.8 | 4.8 | 0.00 | 0.00 | 0.00 | 48 | 1006.8 |
| 20260505190421 | 32 | 135 | 6.4 | 11.3 | 0.00 | 0.00 | 0.00 | 48 | 1006.8 |
| 20260505185917 | 32 | 169 | 6.4 | 9.7 | 0.00 | 0.00 | 0.00 | 50 | 1006.8 |
| 20260505185415 | 32 | 262 | 8.0 | 9.7 | 0.00 | 0.00 | 0.00 | 46 | 1006.8 |
| 20260505184910 | 31 | 209 | 8.0 | 11.3 | 0.00 | 0.00 | 0.00 | 49 | 1006.8 |
| 20260505184407 | 31 | 149 | 4.8 | 9.7 | 0.00 | 0.00 | 0.00 | 52 | 1007.1 |
| 20260505183905 | 31 | 186 | 8.0 | 9.7 | 0.00 | 0.00 | 0.00 | 53 | 1006.8 |
| 20260505183401 | 31 | 335 | 4.8 | 11.3 | 0.00 | 0.00 | 0.00 | 52 | 1006.4 |
| 20260505182858 | 31 | 136 | 8.0 | 9.7 | 0.00 | 0.00 | 0.00 | 55 | 1007.1 |
| 20260505182355 | 30 | 207 | 8.0 | 11.3 | 0.00 | 0.00 | 0.00 | 54 | 1007.1 |
| 20260505181851 | 31 | 292 | 8.0 | 9.7 | 0.00 | 0.00 | 0.00 | 54 | 1007.1 |
| 20260505181349 | 31 | 218 | 9.7 | 12.9 | 0.00 | 0.00 | 0.00 | 55 | 1006.8 |
| 20260505180845 | 31 | 181 | 8.0 | 11.3 | 0.00 | 0.00 | 0.00 | 54 | 1007.1 |
| 20260505180342 | 31 | 178 | 8.0 | 12.9 | 0.00 | 0.00 | 0.00 | 54 | 1007.1 |
| 20260505175839 | 30 | 156 | 3.2 | 4.8 | 0.00 | 0.00 | 0.00 | 58 | 1007.1 |
| 20260505175335 | 30 | 226 | 11.3 | 17.7 | 0.00 | 0.00 | 0.00 | 57 | 1007.1 |
| 20260505174831 | 30 | 240 | 8.0 | 12.9 | 0.00 | 0.00 | 0.00 | 57 | 1007.1 |
| 20260505174329 | 30 | 260 | 8.0 | 12.9 | 0.00 | 0.00 | 0.00 | 57 | 1007.1 |
| 20260505173824 | 30 | 189 | 4.8 | 8.0 | 0.00 | 0.00 | 0.00 | 58 | 1007.1 |
| 20260505173321 | 30 | 211 | 4.8 | 4.8 | 0.00 | 0.00 | 0.00 | 60 | 1007.1 |
| 20260505172819 | 30 | 157 | 4.8 | 8.0 | 0.00 | 0.00 | 0.00 | 61 | 1007.1 |
| 20260505172316 | 29 | 203 | 8.0 | 11.3 | 0.00 | 0.00 | 0.00 | 62 | 1007.5 |
| 20260505171815 | 28 | 111 | 4.8 | 4.8 | 0.00 | 0.00 | 0.00 | 62 | 1007.1 |
| 20260505171313 | 28 | 210 | 11.3 | 16.1 | 0.00 | 0.00 | 0.00 | 62 | 1007.1 |
| 20260505170809 | 28 | 208 | 11.3 | 12.9 | 0.00 | 0.00 | 0.00 | 62 | 1007.5 |
| 20260505170306 | 28 | 240 | 11.3 | 14.5 | 0.00 | 0.00 | 0.00 | 62 | 1007.5 |
| 20260505165801 | 28 | 231 | 12.9 | 17.7 | 0.00 | 0.00 | 0.00 | 63 | 1007.5 |
| 20260505165257 | 28 | 176 | 6.4 | 9.7 | 0.00 | 0.00 | 0.00 | 66 | 1007.5 |
| 20260505164753 | 28 | 136 | 1.6 | 3.2 | 0.00 | 0.00 | 0.00 | 67 | 1007.1 |
| 20260505164250 | 27 | 197 | 4.8 | 8.0 | 0.00 | 0.00 | 0.00 | 68 | 1007.5 |
| 20260505163748 | 27 | 142 | 1.6 | 3.2 | 0.00 | 0.00 | 0.00 | 68 | 1007.1 |
| 20260505163247 | 27 | 193 | 8.0 | 9.7 | 0.00 | 0.00 | 0.00 | 68 | 1007.1 |
| 20260505162744 | 27 | 168 | 4.8 | 4.8 | 0.00 | 0.00 | 0.00 | 68 | 1007.5 |
| 20260505162241 | 27 | 237 | 11.3 | 16.1 | 0.00 | 0.00 | 0.00 | 68 | 1006.8 |
| 20260505161738 | 27 | 156 | 9.7 | 14.5 | 0.00 | 0.00 | 0.00 | 69 | 1006.8 |
| 20260505161236 | 26 | 163 | 11.3 | 20.9 | 0.00 | 0.00 | 0.00 | 70 | 1006.8 |
| 20260505160733 | 26 | 137 | 9.7 | 12.9 | 0.00 | 0.00 | 0.00 | 71 | 1006.8 |
| 20260505160231 | 26 | 206 | 9.7 | 12.9 | 0.00 | 0.00 | 0.00 | 70 | 1006.8 |
| 20260505153209 | 26 | 240 | 8.0 | 11.3 | 0.00 | 0.00 | 0.00 | 70 | 1006.8 |
| 20260505152706 | 26 | 231 | 11.3 | 16.1 | 0.00 | 0.00 | 0.00 | 71 | 1006.8 |
| 20260505152202 | 26 | 196 | 8.0 | 9.7 | 0.00 | 0.00 | 0.00 | 73 | 1007.1 |
| 20260505151657 | 26 | 196 | 8.0 | 9.7 | 0.00 | 0.00 | 0.00 | 73 | 1006.8 |
| 20260505151156 | 26 | 313 | 12.9 | 17.7 | 0.00 | 0.00 | 0.00 | 72 | 1006.8 |
| 20260505150651 | 26 | 118 | 11.3 | 16.1 | 0.00 | 0.00 | 0.00 | 72 | 1006.8 |
| 20260505150148 | 26 | 207 | 11.3 | 14.5 | 0.00 | 0.00 | 0.00 | 73 | 1006.8 |
| 20260505140617 | 23 | 218 | 11.3 | 14.5 | 0.00 | 0.00 | 0.00 | 80 | 1006.4 |
| 20260505140114 | 22 | 203 | 12.9 | 16.1 | 0.00 | 0.00 | 0.00 | 80 | 1006.8 |
| 20260505125030 | 21 | 168 | 6.4 | 9.7 | 0.00 | 0.00 | 0.00 | 84 | 1006.1 |
| 20260505124527 | 21 | 198 | 9.7 | 12.9 | 0.00 | 0.00 | 0.00 | 84 | 1006.1 |
| 20260505124023 | 21 | 152 | 8.0 | 9.7 | 0.00 | 0.00 | 0.00 | 85 | 1006.1 |
| 20260505123520 | 21 | 176 | 4.8 | 8.0 | 0.00 | 0.00 | 0.00 | 85 | 1006.1 |
| 20260505123016 | 21 | 201 | 6.4 | 9.7 | 0.00 | 0.00 | 0.00 | 85 | 1006.1 |
| 20260505122513 | 20 | 157 | 3.2 | 3.2 | 0.00 | 0.00 | 0.00 | 85 | 1006.1 |
| 20260505122010 | 20 | 168 | 4.8 | 9.7 | 0.00 | 0.00 | 0.00 | 85 | 1006.1 |
| 20260505121506 | 20 | 146 | 3.2 | 8.0 | 0.00 | 0.00 | 0.00 | 85 | 1005.7 |
| 20260505121003 | 20 | 169 | 1.6 | 3.2 | 0.00 | 0.00 | 0.00 | 85 | 1005.7 |
| 20260505120459 | 20 | 176 | 4.8 | 8.0 | 0.00 | 0.00 | 0.00 | 85 | 1005.4 |
| 20260505115958 | 20 | 161 | 4.8 | 4.8 | 0.00 | 0.00 | 0.00 | 85 | 1005.4 |
| 20260505115455 | 20 | 179 | 11.3 | 14.5 | 0.00 | 0.00 | 0.00 | 85 | 1005.4 |
| 20260505114953 | 21 | 146 | 4.8 | 8.0 | 0.00 | 0.00 | 0.00 | 84 | 1005.4 |
| 20260505114449 | 21 | 177 | 6.4 | 9.7 | 0.00 | 0.00 | 0.00 | 84 | 1005.4 |
| 20260505113946 | 21 | 162 | 6.4 | 11.3 | 0.00 | 0.00 | 0.00 | 84 | 1005.4 |
| 20260505113442 | 21 | 148 | 11.3 | 16.1 | 0.00 | 0.00 | 0.00 | 84 | 1005.4 |
| 20260505112937 | 21 | 157 | 4.8 | 8.0 | 0.00 | 0.00 | 0.00 | 84 | 1005.1 |
| 20260505112435 | 21 | 179 | 9.7 | 11.3 | 0.00 | 0.00 | 0.00 | 83 | 1005.4 |
| 20260505111932 | 21 | 172 | 8.0 | 16.1 | 0.00 | 0.00 | 0.00 | 83 | 1005.1 |
| 20260505111426 | 21 | 180 | 11.3 | 14.5 | 0.00 | 0.00 | 0.00 | 83 | 1005.4 |
| 20260505110923 | 21 | 171 | 14.5 | 22.5 | 0.00 | 0.00 | 0.00 | 83 | 1005.1 |
| 20260505110420 | 21 | 157 | 6.4 | 9.7 | 0.00 | 0.00 | 0.00 | 83 | 1005.1 |
| 20260505101851 | 21 | 196 | 8.0 | 12.9 | 0.00 | 0.00 | 0.00 | 82 | 1005.4 |
| 20260505101345 | 21 | 166 | 8.0 | 12.9 | 0.00 | 0.00 | 0.00 | 82 | 1005.4 |
| 20260505100842 | 21 | 201 | 8.0 | 12.9 | 0.00 | 0.00 | 0.00 | 82 | 1005.4 |
| 20260505100338 | 21 | 218 | 9.7 | 12.9 | 0.00 | 0.00 | 0.00 | 82 | 1005.4 |
| 20260505095834 | 21 | 210 | 11.3 | 14.5 | 0.00 | 0.00 | 0.00 | 81 | 1005.4 |
| 20260505095332 | 21 | 193 | 6.4 | 8.0 | 0.00 | 0.00 | 0.00 | 81 | 1005.4 |
| 20260505094828 | 21 | 183 | 8.0 | 9.7 | 0.00 | 0.00 | 0.00 | 81 | 1005.4 |
| 20260505094325 | 21 | 225 | 9.7 | 11.3 | 0.00 | 0.00 | 0.00 | 81 | 1005.4 |
| 20260505093820 | 21 | 155 | 6.4 | 8.0 | 0.00 | 0.00 | 0.00 | 81 | 1005.4 |
| 20260505093318 | 21 | 219 | 9.7 | 11.3 | 0.00 | 0.00 | 0.00 | 81 | 1005.4 |
| 20260505092814 | 21 | 208 | 9.7 | 11.3 | 0.00 | 0.00 | 0.00 | 81 | 1005.1 |
| 20260505092313 | 21 | 154 | 6.4 | 11.3 | 0.00 | 0.00 | 0.00 | 80 | 1005.4 |
| 20260505091810 | 21 | 195 | 6.4 | 12.9 | 0.00 | 0.00 | 0.00 | 80 | 1005.4 |
| 20260505091308 | 21 | 217 | 12.9 | 24.1 | 0.00 | 0.00 | 0.00 | 80 | 1005.4 |
| 20260505090806 | 21 | 183 | 9.7 | 12.9 | 0.00 | 0.00 | 0.00 | 80 | 1005.7 |
| 20260505090304 | 21 | 205 | 6.4 | 9.7 | 0.00 | 0.00 | 0.00 | 80 | 1005.7 |
| 20260505085801 | 22 | 187 | 9.7 | 12.9 | 0.00 | 0.00 | 0.00 | 80 | 1005.7 |
| 20260505085259 | 22 | 164 | 8.0 | 9.7 | 0.00 | 0.00 | 0.00 | 80 | 1005.7 |
| 20260505084756 | 22 | 231 | 12.9 | 17.7 | 0.00 | 0.00 | 0.00 | 80 | 1005.7 |
| 20260505084255 | 22 | 154 | 8.0 | 12.9 | 0.00 | 0.00 | 0.00 | 79 | 1005.4 |
| 20260505083751 | 22 | 217 | 17.7 | 24.1 | 0.00 | 0.00 | 0.00 | 79 | 1005.7 |
| 20260505083248 | 22 | 149 | 6.4 | 8.0 | 0.00 | 0.00 | 0.00 | 79 | 1005.7 |
| 20260505082744 | 22 | 216 | 4.8 | 8.0 | 0.00 | 0.00 | 0.00 | 79 | 1005.7 |
| 20260505082242 | 22 | 223 | 11.3 | 14.5 | 0.00 | 0.00 | 0.00 | 79 | 1005.7 |
| 20260505081737 | 22 | 154 | 8.0 | 9.7 | 0.00 | 0.00 | 0.00 | 79 | 1006.1 |
| 20260505081235 | 22 | 174 | 8.0 | 9.7 | 0.00 | 0.00 | 0.00 | 78 | 1006.1 |
| 20260505080732 | 22 | 184 | 8.0 | 14.5 | 0.00 | 0.00 | 0.00 | 78 | 1006.1 |
| 20260505080227 | 22 | 169 | 17.7 | 22.5 | 0.00 | 0.00 | 0.00 | 78 | 1006.1 |
| 20260505075723 | 22 | 116 | 8.0 | 11.3 | 0.00 | 0.00 | 0.00 | 78 | 1006.1 |
| 20260505075220 | 22 | 183 | 16.1 | 20.9 | 0.00 | 0.00 | 0.00 | 78 | 1005.7 |
| 20260505074718 | 22 | 189 | 12.9 | 16.1 | 0.00 | 0.00 | 0.00 | 77 | 1006.1 |
| 20260505074215 | 22 | 172 | 4.8 | 9.7 | 0.00 | 0.00 | 0.00 | 77 | 1006.1 |
| 20260505073712 | 22 | 175 | 11.3 | 14.5 | 0.00 | 0.00 | 0.00 | 77 | 1006.4 |
| 20260505073210 | 22 | 169 | 11.3 | 12.9 | 0.00 | 0.00 | 0.00 | 77 | 1006.1 |
| 20260505072706 | 22 | 155 | 12.9 | 16.1 | 0.00 | 0.00 | 0.00 | 76 | 1006.4 |
| 20260505072202 | 23 | 177 | 12.9 | 16.1 | 0.00 | 0.00 | 0.00 | 76 | 1006.4 |
| 20260505071658 | 23 | 193 | 8.0 | 11.3 | 0.00 | 0.00 | 0.00 | 76 | 1006.1 |
| 20260505071155 | 23 | 222 | 14.5 | 14.5 | 0.00 | 0.00 | 0.00 | 75 | 1006.4 |